AirNav   Air Wisconsin Up To $57,000 Bonus
 
 606 users online  

22KS Via Christi Regional Medical Center-St Francis Campus Heliport
Wichita, Kansas, USA

GOING TO WICHITA?


FAA INFORMATION EFFECTIVE 08 SEPTEMBER 2022

Location

FAA Identifier: 22KS
Lat/Long: 37-41-54.1400N 097-19-55.0400W
37-41.902333N 097-19.917333W
37.6983722,-97.3319556
(estimated)
Elevation: 1382 ft. / 421 m (estimated)
Variation: 07E (1985)
Time zone: UTC -5 (UTC -6 during Standard Time)
Zip code: 67214

Heliport Operations

Heliport use: Private use, MEDICAL.
Activation date: 12/1982
Control tower: no
ARTCC: KANSAS CITY CENTER
FSS: WICHITA FLIGHT SERVICE STATION
Attendance: CONTINUOUS
Wind indicator: lighted
Segmented circle: yes
Lights: FOR PERIMETER LGTS CALL 316-268-5092.

Heliport Communications

WX AWOS-3PT at BEC (6 nm E): 119.45 (316-515-7116)
WX ASOS at ICT (6 nm SW): PHONE 316-945-8022
WX ASOS at AAO (6 nm NE): 134.025 (316-636-2541)
WX AWOS-2 at 1K1 (11 nm NE): 118.3 (316-530-6004)
WX AWOS-3P at 3AU (12 nm E): 124.175 (316-733-6696)

Nearby radio navigation aids

VOR radial/distance  VOR name  Freq  Var
ICTr096/12.3WICHITA VORTAC113.8007E
HUTr118/33.7HUTCHINSON VOR/DME116.8004E

 
NDB name  Hdg/Dist  Freq  Var  ID
PICHE035/9.333204EIC .. -.-.

Heliport Services

Runway Information

Helipad H1

Dimensions: 63 x 63 ft. / 19 x 19 m
Surface: concrete
ROOFTOP.
Runway edge lights: PERI
Latitude: 37-41.902333N
Longitude: 097-19.917333W
Elevation: 1382.0 ft.
Traffic pattern: leftleft
Markings: basic, in good condition

Heliport Ownership and Management from official FAA records

Ownership: Privately-owned
Owner: VIA CHRISTI RGL MED CTR ST F CAMPUS
929 N ST FRANCIS
WICHITA, KS 67214
Phone 316-268-6948
Manager: JUSTIN CERRE
929 N ST FRANCIS
WICHITA, KS 67214
Phone (316) 268-6948

Additional Remarks

A52-H1 77' BLDG-ML 270' NORTH; TOWERS EAST & WEST.
FOR CD CTC WICHITA APCH AT 316-350-1520.

Instrument Procedures

There are no published instrument procedures at 22KS.

Some nearby airports with instrument procedures:

KCEA - Cessna Aircraft Field Airport (5 nm SE)
KIAB - Mc Connell Air Force Base (5 nm SE)
KBEC - Beech Factory Airport (6 nm E)
KICT - Wichita Dwight D Eisenhower National Airport (6 nm SW)
KAAO - Colonel James Jabara Airport (6 nm NE)
1K1 - Lloyd Stearman Field Airport (11 nm NE)
3AU - Augusta Municipal Airport (12 nm E)
 
Loc | Ops | Rwys | IFR | FBO | Links
Com | Nav | Svcs | Stats | Notes
Area around 22KS (Via Christi Regional Medical Center-St Francis Campus Heliport)
 
Road maps at: MapQuest Bing Google
 
Aerial photo
No photo
 
Sectional chart

 
Airport distance calculator
Flying to Via Christi Regional Medical Center-St Francis Campus Heliport? Find the distance to fly.

From to 22KS

Sunrise and sunset
Times for 26-Sep-2022
 Local
(UTC-5)
 Zulu
(UTC)
Morning civil twilight06:5511:55
Sunrise07:2212:22
Sunset19:2000:20
Evening civil twilight19:4600:46

Current date and time
Zulu (UTC)  26-Sep-2022 09:57:28
Local (UTC-5)  26-Sep-2022 04:57:28
 
METAR
KBEC 
6nm E 
260935Z AUTO 32006KT 10SM CLR 15/06 A3015 RMK AO2 T01470060
KICT 
6nm SW 
260853Z 33006KT 10SM CLR 13/08 A3015 RMK AO2 SLP199 T01330078 53001
KIAB 
6nm SE 
260855Z AUTO 35005KT 8SM CLR 15/07 A3012 RMK AO2 SLP193 T01460074 53001
KAAO 
6nm NE 
260954Z AUTO 31007KT 10SM CLR 14/06 A3015 RMK AO2 SLP202 T01390061
K1K1 
11nm NE 
260935Z AUTO 33005KT 10SM CLR 13/05 A3015 RMK AO2 T01260052
K3AU 
12nm E 
260935Z AUTO 32004KT 10SM CLR 12/05 A3015 RMK AO2
TAF
KICT 
6nm SW 
260544Z 2606/2706 VRB04KT P6SM FEW250
KIAB 
6nm SE 
260100Z 2601/2624 01008KT 9999 SKC QNH3007INS BECMG 2614/2615 32012G18KT 9999 SKC QNH3008INS TX26/2621Z TN14/2612Z LAST NO AMDS AFT 2601 NEXT 2610
NOTAMs
Click for the latest NOTAMs
NOTAMs are issued by the DoD/FAA and will open in a separate window not controlled by AirNav.

 

 
 

Would you like to see your business listed on this page?

 If your business provides an interesting product or service to pilots, flight crews, aircraft, or users of the Via Christi Regional Medical Center-St Francis Campus Heliport, you should consider listing it here.  To start the listing process, click on the button below
 
Add a business
 

Other Pages about Via Christi Regional Medical Center-St Francis Campus Heliport

Update a link
 
Copyright © AirNav, LLC. All rights reserved. Privacy Policy  Contact